• In Belarus
  • List of Countries
  • For 7 days
  • Water Temperature
  • Satellite Maps
  • Weather Map
  • Weather Widgets
  • user-avatar
    Login

    Hourly Weather Minsk

    Today, 22 February, Wednesday

    Time Temperature Precipitation Wind Pressure Humidity
    00:00 -1°C° 0.1 mm 5 mps 726 mmHg 95%
    01:00 -1°C° 0.1 mm 4 mps 726 mmHg 96%
    02:00 -1°C° 0.1 mm 4 mps 727 mmHg 96%
    03:00 -1°C° 0.1 mm 4 mps 728 mmHg 96%
    04:00 -2°C° 0.1 mm 4 mps 728 mmHg 95%
    05:00 -2°C° 0.1 mm 4 mps 729 mmHg 94%
    06:00 -3°C° 0 mm 4 mps 730 mmHg 93%
    07:00 -2°C° 0 mm 3 mps 731 mmHg 92%
    08:00 -4°C° 0 mm 3 mps 732 mmHg 91%
    09:00 -2°C° 0 mm 2 mps 732 mmHg 87%
    10:00 -2°C° 0 mm 2 mps 732 mmHg 83%
    11:00 0°C° 0 mm 1 mps 732 mmHg 79%
    12:00 -1°C° 0 mm 2 mps 731 mmHg 80%
    13:00 -1°C° 0 mm 3 mps 731 mmHg 81%
    14:00 -1°C° 0 mm 3 mps 730 mmHg 82%
    15:00 -2°C° 0.1 mm 4 mps 729 mmHg 85%
    16:00 -2°C° 0.1 mm 4 mps 728 mmHg 89%
    17:00 -2°C° 0.1 mm 4 mps 727 mmHg 92%
    18:00 -1°C° 0.7 mm 4 mps 726 mmHg 94%
    19:00 -1°C° 0.7 mm 5 mps 725 mmHg 95%
    20:00 -1°C° 0.7 mm 5 mps 724 mmHg 96%
    21:00 -1°C° 0.4 mm 5 mps 723 mmHg 97%
    22:00 0°C° 0.4 mm 4 mps 723 mmHg 98%
    23:00 0°C° 0.4 mm 4 mps 722 mmHg 99%

    Tomorrow, 23 February, Thursday

    Time Temperature Precipitation Wind Pressure Humidity
    00:00 0°C° 0 mm 4 mps 722 mmHg 98%
    01:00 -1°C° 0 mm 4 mps 722 mmHg 98%
    02:00 0°C° 0 mm 3 mps 723 mmHg 97%
    03:00 -1°C° 0.1 mm 4 mps 723 mmHg 97%
    04:00 -1°C° 0.1 mm 4 mps 722 mmHg 97%
    05:00 -1°C° 0.1 mm 4 mps 722 mmHg 96%
    06:00 -1°C° 0.1 mm 4 mps 723 mmHg 96%
    07:00 -1°C° 0.1 mm 4 mps 723 mmHg 95%
    08:00 -1°C° 0.1 mm 5 mps 723 mmHg 95%
    09:00 -1°C° 0.1 mm 5 mps 723 mmHg 94%
    10:00 -1°C° 0.1 mm 5 mps 723 mmHg 93%
    11:00 -1°C° 0.1 mm 6 mps 723 mmHg 92%
    12:00 -1°C° 0.3 mm 6 mps 723 mmHg 92%
    13:00 -1°C° 0.3 mm 7 mps 723 mmHg 92%
    14:00 -1°C° 0.3 mm 7 mps 723 mmHg 92%
    15:00 -1°C° 0.2 mm 7 mps 723 mmHg 93%
    16:00 -1°C° 0.2 mm 6 mps 724 mmHg 93%
    17:00 -1°C° 0.2 mm 6 mps 725 mmHg 94%
    18:00 0°C° 0 mm 5 mps 725 mmHg 95%
    19:00 0°C° 0 mm 5 mps 726 mmHg 95%
    20:00 -1°C° 0 mm 4 mps 726 mmHg 95%
    21:00 -1°C° 0 mm 4 mps 726 mmHg 96%
    22:00 -1°C° 0 mm 4 mps 725 mmHg 96%
    23:00 0°C° 0 mm 3 mps 725 mmHg 96%

    Day after tomorrow, 24 February, Friday

    Time Temperature Precipitation Wind Pressure Humidity
    00:00 -1°C° 0.3 mm 4 mps 724 mmHg 97%
    01:00 -1°C° 0.3 mm 4 mps 723 mmHg 97%
    02:00 -1°C° 0.3 mm 4 mps 723 mmHg 97%
    03:00 0°C° 0.6 mm 5 mps 721 mmHg 98%
    04:00 0°C° 0.6 mm 5 mps 720 mmHg 98%
    05:00 +1°C° 0.6 mm 5 mps 719 mmHg 98%
    06:00 +1°C° 0.3 mm 5 mps 719 mmHg 98%
    07:00 +2°C° 0.3 mm 5 mps 718 mmHg 98%
    08:00 +2°C° 0.3 mm 5 mps 718 mmHg 98%
    09:00 +2°C° 0.2 mm 6 mps 718 mmHg 95%
    10:00 +2°C° 0.2 mm 6 mps 718 mmHg 93%
    11:00 +2°C° 0.2 mm 7 mps 718 mmHg 91%
    12:00 +2°C° 0.3 mm 7 mps 718 mmHg 91%
    13:00 +2°C° 0.3 mm 7 mps 718 mmHg 91%
    14:00 +2°C° 0.3 mm 7 mps 719 mmHg 91%
    15:00 0°C° 0.4 mm 7 mps 720 mmHg 91%
    16:00 -1°C° 0.4 mm 6 mps 721 mmHg 92%
    17:00 -1°C° 0.4 mm 6 mps 722 mmHg 93%
    18:00 -2°C° 0.2 mm 6 mps 723 mmHg 91%
    19:00 -4°C° 0.2 mm 6 mps 725 mmHg 89%
    20:00 -5°C° 0.2 mm 6 mps 727 mmHg 88%
    21:00 -5°C° 0 mm 5 mps 728 mmHg 86%
    22:00 -6°C° 0 mm 5 mps 730 mmHg 84%
    23:00 -6°C° 0 mm 5 mps 731 mmHg 83%

    25 February, Saturday

    Time Temperature Precipitation Wind Pressure Humidity
    00:00 -5°C° 0 mm 4 mps 732 mmHg 83%
    01:00 -5°C° 0 mm 4 mps 733 mmHg 83%
    02:00 -5°C° 0 mm 4 mps 734 mmHg 83%
    03:00 -5°C° 0 mm 4 mps 734 mmHg 83%
    04:00 -5°C° 0 mm 4 mps 734 mmHg 83%
    05:00 -5°C° 0 mm 4 mps 734 mmHg 82%
    06:00 -6°C° 0 mm 5 mps 734 mmHg 82%
    07:00 -6°C° 0 mm 5 mps 734 mmHg 81%
    08:00 -6°C° 0 mm 5 mps 734 mmHg 81%
    09:00 -5°C° 0.2 mm 6 mps 735 mmHg 79%
    10:00 -5°C° 0.2 mm 6 mps 735 mmHg 78%
    11:00 -4°C° 0.2 mm 6 mps 735 mmHg 76%
    12:00 -4°C° 0.1 mm 6 mps 735 mmHg 71%
    13:00 -3°C° 0.1 mm 6 mps 735 mmHg 66%
    14:00 -3°C° 0.1 mm 6 mps 735 mmHg 60%
    15:00 -3°C° 0.1 mm 6 mps 736 mmHg 65%
    16:00 -4°C° 0.1 mm 5 mps 737 mmHg 70%
    17:00 -5°C° 0.1 mm 5 mps 737 mmHg 75%
    18:00 -4°C° 0 mm 4 mps 738 mmHg 78%
    19:00 -5°C° 0 mm 4 mps 739 mmHg 81%
    20:00 -5°C° 0 mm 3 mps 739 mmHg 84%
    21:00 -5°C° 0 mm 3 mps 740 mmHg 85%
    22:00 -5°C° 0 mm 3 mps 740 mmHg 86%
    23:00 -6°C° 0 mm 3 mps 741 mmHg 87%

    26 February, Sunday

    Time Temperature Precipitation Wind Pressure Humidity
    00:00 -6°C° 0 mm 3 mps 741 mmHg 87%
    01:00 -6°C° 0 mm 3 mps 741 mmHg 87%
    02:00 -6°C° 0 mm 3 mps 741 mmHg 87%
    03:00 -5°C° 0 mm 3 mps 740 mmHg 86%
    04:00 -5°C° 0 mm 3 mps 740 mmHg 84%
    05:00 -5°C° 0 mm 4 mps 739 mmHg 82%
    06:00 -4°C° 0.2 mm 4 mps 739 mmHg 85%
    07:00 -5°C° 0.2 mm 5 mps 738 mmHg 88%
    08:00 -5°C° 0.2 mm 5 mps 737 mmHg 91%
    09:00 -4°C° 0.6 mm 5 mps 737 mmHg 91%
    10:00 -2°C° 0.6 mm 5 mps 736 mmHg 91%
    11:00 -3°C° 0.6 mm 6 mps 735 mmHg 92%
    12:00 -1°C° 0.5 mm 5 mps 735 mmHg 92%
    13:00 -1°C° 0.5 mm 5 mps 734 mmHg 93%
    14:00 0°C° 0.5 mm 5 mps 734 mmHg 93%
    15:00 0°C° 0.3 mm 5 mps 733 mmHg 94%
    16:00 0°C° 0.3 mm 5 mps 733 mmHg 95%
    17:00 -1°C° 0.3 mm 6 mps 732 mmHg 97%
    18:00 -1°C° 0.3 mm 6 mps 732 mmHg 97%
    19:00 +1°C° 0.3 mm 6 mps 732 mmHg 97%
    20:00 +1°C° 0.3 mm 6 mps 732 mmHg 98%
    21:00 +1°C° 0.1 mm 6 mps 732 mmHg 97%
    22:00 +1°C° 0.1 mm 6 mps 732 mmHg 96%
    23:00 +1°C° 0.1 mm 6 mps 733 mmHg 95%

    27 February, Monday

    Time Temperature Precipitation Wind Pressure Humidity
    00:00 +1°C° 0.1 mm 6 mps 733 mmHg 94%
    01:00 -1°C° 0.1 mm 7 mps 733 mmHg 94%
    02:00 -1°C° 0.1 mm 7 mps 734 mmHg 93%
    03:00 -1°C° 0 mm 7 mps 734 mmHg 93%
    04:00 -1°C° 0 mm 6 mps 735 mmHg 93%
    05:00 -1°C° 0 mm 6 mps 736 mmHg 92%
    06:00 -2°C° 0 mm 6 mps 737 mmHg 93%
    07:00 -2°C° 0 mm 6 mps 737 mmHg 93%
    08:00 -1°C° 0 mm 5 mps 738 mmHg 93%
    09:00 0°C° 0 mm 5 mps 739 mmHg 92%
    10:00 0°C° 0 mm 5 mps 739 mmHg 91%
    11:00 0°C° 0 mm 5 mps 740 mmHg 90%
    12:00 0°C° 0 mm 4 mps 740 mmHg 90%
    13:00 +1°C° 0 mm 4 mps 741 mmHg 91%
    14:00 +1°C° 0 mm 4 mps 741 mmHg 92%
    15:00 +1°C° 0 mm 3 mps 741 mmHg 94%
    16:00 +1°C° 0 mm 3 mps 741 mmHg 95%
    17:00 +2°C° 0 mm 2 mps 742 mmHg 97%
    18:00 +2°C° 0 mm 2 mps 742 mmHg 97%
    19:00 +1°C° 0 mm 2 mps 742 mmHg 98%
    20:00 +1°C° 0 mm 2 mps 742 mmHg 98%
    21:00 +1°C° 0 mm 2 mps 742 mmHg 98%
    22:00 +1°C° 0 mm 2 mps 742 mmHg 98%
    23:00 +1°C° 0 mm 2 mps 742 mmHg 98%
    Show more